Temp_Advection
nan nan nan nan nan nan nan nan nan nan nan nan nan nan nan nan nan nan nan nan nan nan nan nan nan nan nan nan nan nan nan nan nan nan nan nan nan nan nan nan nan nan nan nan
nan -0 -0 -0 0 0 -0 -0 -0 0 0 0 0 -0 -0 0 0 0 0 0 -0 -0 0 0 -0 -0 -0 0 -0 -0 -0 -0 0 0 0 -0 0 0 -0 -0 -0 -0 -0 nan
nan 0 -0 -0 0 -0 -0 -0 -0 0 -0 0 -0 -0 -0 0 0 -0 -0 -0 0 -0 -0 0 0 0 0 0 0 -0 -0 -0 0 0 0 -0 0 -0 -0 -0 -0 -0 -1 nan
nan 0 -0 -0 -0 -0 -0 -0 -0 0 0 0 -0 -0 -0 -0 -0 -0 -0 -0 -0 -0 -0 -0 0 0 0 -0 -0 -0 -0 -0 0 -0 0 -0 0 0 0 -0 -1 -1 -0 nan
nan 0 -0 -0 -0 -0 0 -0 -0 -0 0 -0 -0 -0 -0 -0 -0 0 -0 -0 0 -0 0 0 0 0 0 0 -0 -0 -0 -0 0 -0 -0 0 0 0 -0 -0 -0 -0 -0 nan
nan 0 -0 -0 -0 0 -0 -0 -0 -0 -0 -0 0 -0 0 -0 -0 0 -0 -0 -0 -0 0 -0 -0 -0 0 0 0 0 0 -0 0 0 -0 -0 -0 -0 -0 0 -0 -0 -0 nan
nan 0 -0 -0 -0 0 0 -0 -0 -0 -0 0 0 -0 0 -0 -0 0 -0 0 -0 0 0 0 0 -0 -0 -0 -0 -0 -0 -0 -0 0 -0 -0 -0 0 -0 -0 -0 0 -0 nan
nan 0 -0 -0 -0 0 0 -0 -0 -1 -0 0 -0 -0 -0 -0 -0 0 0 -0 -0 0 -0 -0 -0 -0 0 -0 0 -0 -0 -0 0 -0 -0 -1 0 0 -0 -0 0 -0 -0 nan
nan -0 -0 -0 0 0 -0 -0 -0 -0 -1 -0 -0 -0 -0 -0 -0 0 -0 -0 0 -0 -0 0 0 0 0 0 -0 -0 -0 -0 -0 -0 0 -0 -0 -0 0 -0 -0 -0 0 nan
nan 0 -0 0 0 0 -0 -0 -0 -1 -1 0 0 -0 0 0 0 0 -0 -0 -0 -0 -0 0 0 -0 0 0 0 0 0 0 0 -0 -0 -0 -0 -0 0 -0 -0 -1 -0 nan
nan 0 -0 0 0 -0 -0 -0 0 -1 -1 -0 0 0 0 -0 -0 0 -0 -0 -0 -0 0 -0 -0 -0 -0 -0 0 0 0 0 -0 0 0 -0 -0 -0 -0 -0 -1 -1 -1 nan
nan -0 0 0 0 -0 -0 -0 -0 -0 -1 -1 0 0 0 -0 0 0 -0 0 -0 0 0 -0 -0 -0 -0 -0 -0 -0 0 0 0 0 0 -0 -1 -0 -0 -0 -1 -1 -1 nan
nan 0 0 0 -0 0 0 -1 -1 -2 -2 -0 -0 -0 0 0 0 0 -0 -0 0 0 -0 0 -0 -0 -0 0 -0 -0 -0 -0 -0 -0 -0 -0 -1 -0 -0 -0 -0 -1 -1 nan
nan 0 0 0 0 0 0 -0 -0 -0 -1 -0 -0 0 -0 0 -0 -0 0 0 0 0 -0 -0 0 0 -0 0 -0 -0 -0 -0 -0 -0 -0 -1 -0 -0 -0 -1 -0 -1 -2 nan
nan 0 0 0 0 0 0 0 -0 -0 -0 -1 0 -0 -0 -0 -0 -0 0 0 0 -0 -0 -0 0 -0 -0 -0 0 -0 -0 -0 -0 -0 -1 -0 -1 -1 -1 -1 -1 -1 -2 nan
nan 0 0 0 1 1 1 0 -0 0 -1 -1 -0 0 -0 -0 0 0 0 0 -0 -0 -0 -0 0 0 0 0 0 -0 -0 0 0 0 0 -0 -1 -1 -0 -0 -1 -1 -1 nan
nan 0 0 0 0 0 0 0 0 0 0 -1 -1 0 0 -0 -0 -0 -0 -0 0 -0 -0 -0 -0 0 -0 0 0 0 0 0 0 -0 -0 -0 -0 -0 -1 -0 -0 -1 -2 nan
nan 0 -0 -0 1 0 0 0 0 0 -0 -1 -1 -0 0 -0 -0 -0 -0 -0 -0 -0 -0 0 0 -0 -0 -0 -0 -0 -0 -0 0 0 -0 -0 -1 -1 -0 -0 -0 -1 -1 nan
nan 0 0 0 0 0 0 0 0 -0 -0 -1 -1 -0 -0 0 -0 -0 0 -0 -0 0 0 0 0 -0 -0 -0 0 0 0 0 0 -0 -0 -0 -0 -1 -1 -1 -0 -1 -1 nan
nan -0 0 0 0 0 0 0 -0 -0 -0 -1 -1 -0 0 0 -0 -0 -0 -0 -0 -0 -0 -0 0 -0 -1 0 0 0 0 0 1 1 0 -0 -0 -0 -1 -1 -0 -0 -1 nan
nan -0 -0 0 0 0 -0 -1 -1 -0 -0 -0 -0 -0 -0 0 -0 -0 -0 0 -0 -0 -0 0 0 -0 -0 -0 0 0 0 0 1 1 1 1 0 0 -0 -1 -1 -0 -0 nan
nan -0 -1 -0 0 -0 -2 -0 -0 -0 0 0 0 0 -0 0 -0 -0 -0 0 -0 -0 -0 -0 -0 -0 -0 0 0 -0 -0 0 0 0 0 0 1 0 0 -0 -0 -0 -0 nan
nan 0 -0 -0 -0 -1 -0 -0 0 0 -0 -0 0 -0 0 0 0 -0 -0 0 0 -0 0 0 -0 0 -0 0 0 -0 0 -0 -0 0 0 0 0 1 0 -0 -0 -0 -0 nan
nan -1 -1 -0 -0 0 -0 -0 -0 0 -0 -0 -0 -0 0 0 0 -0 -0 -0 -0 0 0 1 -0 0 -0 -0 0 0 0 0 0 -0 0 0 0 0 1 0 -0 -0 -0 nan
nan -0 -1 -0 -0 0 0 0 -0 -0 -0 -0 -0 0 0 -0 -0 -0 -0 0 0 1 1 -0 1 -0 -0 -0 -0 0 -0 -0 0 -0 -0 0 1 0 -0 0 0 -0 -0 nan
nan -1 -1 -0 -0 -0 0 0 -0 -0 -0 0 -0 -0 0 -0 -0 0 0 0 0 0 -1 0 -0 -0 -0 -0 -0 -0 0 -0 -0 -0 -0 0 1 1 -0 -0 0 0 -0 nan
nan nan nan nan nan nan nan nan nan nan nan nan nan nan nan nan nan nan nan nan nan nan nan nan nan nan nan nan nan nan nan nan nan nan nan nan nan nan nan nan nan nan nan nan
Wind_Speed
13 11 11 12 10 5 8 5 2 1 6 1 1 2 4 1 1 2 2 2 4 2 3 5 0 5 1 7 7 4 3 4 4 2 1 3 3 3 4 3 4 1 1 6
11 9 10 10 9 3 8 5 4 3 5 1 2 4 3 1 3 3 3 2 2 6 5 4 3 2 2 10 5 6 5 2 4 2 3 2 3 4 3 3 3 5 3 4
8 8 9 10 9 3 9 5 2 2 4 2 2 3 3 1 4 3 2 2 3 3 3 4 4 2 2 5 3 6 4 3 4 5 4 4 5 5 5 3 2 4 13 11
6 8 9 8 6 1 7 4 2 4 3 2 1 1 2 2 3 4 11 5 5 2 3 3 3 2 3 6 4 4 3 3 2 1 1 2 3 4 9 12 13 10 13 16
5 6 7 8 5 3 5 5 5 5 2 1 1 3 4 3 4 4 3 5 6 5 4 2 4 5 2 3 4 3 4 1 2 4 3 1 4 7 7 13 17 13 18 21
5 4 5 5 4 2 3 7 9 6 3 1 2 0 1 2 2 4 6 2 3 7 2 4 2 2 2 7 6 4 4 4 2 2 3 3 6 9 12 4 5 8 13 19
4 3 4 5 5 3 3 10 10 5 1 3 2 1 2 3 3 2 5 9 3 2 5 4 4 10 11 8 6 5 5 4 2 2 2 2 4 2 1 8 6 7 9 14
3 2 3 6 8 9 3 9 6 5 3 2 4 5 3 2 4 4 4 7 6 5 2 2 3 4 2 3 3 3 3 4 3 3 2 6 2 1 2 2 3 3 5 10
4 2 3 6 7 9 7 9 8 7 12 2 0 2 5 3 3 1 3 5 7 3 3 2 2 3 3 1 2 3 4 5 3 2 1 3 4 2 2 3 2 3 7 10
6 5 6 6 6 7 6 6 9 8 10 5 2 4 3 2 1 1 1 6 5 6 1 2 2 1 2 3 5 3 2 2 3 3 3 6 5 4 6 2 3 15 15 19
10 9 9 7 6 6 7 11 12 10 9 11 9 7 4 2 3 1 4 1 5 4 3 2 1 1 1 2 1 3 5 4 3 1 3 4 7 2 3 5 16 19 24 23
12 11 10 9 8 8 10 20 19 19 13 14 15 16 11 8 7 3 4 4 3 3 1 2 2 2 3 1 1 3 0 2 1 6 4 2 15 10 4 18 21 23 29 35
14 14 13 11 10 11 15 24 28 33 27 16 8 11 11 8 4 5 2 4 2 3 4 3 1 1 2 1 2 3 2 5 1 5 3 11 18 3 25 30 29 32 28 30
16 15 15 14 13 15 16 17 11 13 11 7 5 9 10 9 8 4 5 9 7 6 4 2 2 2 2 1 1 2 3 7 5 5 7 27 1 30 38 37 32 29 30 28
17 16 15 16 16 17 15 12 11 7 5 6 8 9 10 7 8 7 5 4 4 4 3 3 1 1 2 1 1 1 4 2 1 4 16 16 24 33 29 28 31 34 31 33
19 17 16 16 17 18 12 7 11 15 16 6 3 5 7 7 8 8 9 8 7 5 3 2 2 3 3 1 0 1 2 18 11 9 19 27 30 23 18 28 33 28 31 26
21 19 17 15 12 8 3 5 12 11 9 4 5 2 2 7 5 4 6 8 6 4 3 4 3 5 4 1 1 6 18 24 23 20 16 19 15 22 28 27 28 30 34 23
21 22 20 21 19 16 12 12 13 11 6 4 3 2 2 8 4 3 4 3 4 5 3 2 2 2 2 2 6 15 21 23 17 16 24 25 25 24 24 27 25 31 26 20
27 27 21 15 10 5 12 18 16 11 4 5 5 3 2 5 5 2 2 2 3 2 1 4 4 2 3 4 10 16 18 16 19 22 22 20 24 25 26 26 28 24 19 16
30 24 5 5 8 15 8 3 3 2 4 5 5 3 1 3 4 1 1 0 1 1 1 1 1 2 7 5 6 10 13 16 17 18 20 25 27 28 28 25 24 19 16 16
22 6 4 16 13 3 3 4 5 5 4 4 4 3 0 0 2 2 1 1 1 2 3 3 2 3 4 5 8 11 13 15 16 17 20 20 20 23 24 23 20 18 16 15
10 11 18 9 3 3 6 1 3 3 3 3 4 3 2 2 1 1 2 2 2 4 9 2 3 3 3 7 10 13 16 17 18 17 19 20 20 21 21 19 19 18 16 12
22 6 5 2 2 6 5 2 3 1 5 5 4 2 2 2 0 2 1 2 3 10 3 4 3 7 6 11 13 18 18 17 18 18 18 19 20 20 20 20 18 17 16 13
4 5 4 2 2 1 3 4 4 4 7 8 5 4 2 2 2 1 2 4 2 3 2 4 2 5 11 14 17 20 24 23 22 20 21 21 20 21 21 20 19 18 15 12
4 4 3 2 6 6 8 10 8 7 9 6 5 4 2 2 1 2 2 2 4 4 3 3 4 11 14 17 20 24 24 22 23 24 24 24 22 22 23 20 20 18 16 11
3 4 6 8 5 4 6 8 9 9 9 6 3 3 3 1 1 3 5 3 4 4 4 3 12 17 19 21 23 22 19 18 21 23 25 26 26 23 22 22 20 18 14 16
4 4 10 11 10 9 9 11 10 12 8 2 4 3 6 2 2 3 4 4 3 5 0 13 16 21 23 23 24 19 17 18 20 24 25 27 28 26 23 23 20 17 16 17
Wind_Direction
319 338 338 352 14 33 154 155 88 154 153 278 341 238 206 281 42 173 236 169 96 71 113 155 183 209 254 179 165 132 197 120 130 134 89 125 105 171 151 146 234 131 139 258
319 332 332 347 12 11 172 137 114 161 183 313 284 282 285 16 27 36 26 68 85 146 176 112 219 163 264 170 161 164 185 94 104 116 157 352 188 201 152 122 71 188 192 251
320 321 330 348 8 22 173 152 104 146 196 253 259 335 353 25 31 47 31 34 79 115 81 22 148 118 108 159 108 102 96 109 149 177 186 131 171 203 168 161 157 196 235 267
321 315 328 341 5 91 170 146 149 157 175 236 230 9 324 309 42 28 18 30 34 12 109 83 95 80 89 58 42 41 78 95 74 315 107 127 179 196 202 217 227 223 262 258
312 315 335 347 8 160 188 145 144 140 117 240 158 358 356 37 330 40 1 81 23 47 89 61 175 136 133 177 70 62 6 109 92 9 20 210 250 240 220 228 242 254 263 276
291 320 349 4 16 225 183 140 140 139 348 3 121 15 32 26 282 26 62 305 104 60 19 328 323 243 162 156 139 138 152 138 118 238 340 290 278 237 213 208 232 226 248 253
275 330 13 32 40 65 180 154 141 134 51 78 74 325 109 47 5 105 6 41 78 12 330 108 70 81 93 94 62 127 132 110 86 182 4 356 256 357 206 216 265 234 271 278
238 334 41 53 64 62 83 136 141 130 102 80 44 26 26 36 44 44 50 41 5 352 93 62 55 358 62 38 48 81 101 113 83 116 195 285 12 28 124 151 314 200 235 271
196 140 100 88 67 74 65 99 126 112 122 12 4 41 36 55 354 48 24 12 22 51 68 79 141 193 193 178 93 67 111 98 103 135 129 256 240 259 234 123 286 228 228 271
181 160 123 103 81 89 69 90 129 109 102 51 75 78 67 46 173 117 1 334 4 29 81 95 143 227 206 142 164 160 130 153 178 184 232 285 251 285 149 79 288 337 329 312
167 149 129 109 101 86 41 102 128 120 101 79 77 77 91 75 23 89 346 14 16 11 69 75 6 65 313 34 173 176 171 150 206 168 194 282 2 2 38 313 339 347 340 325
158 141 130 118 112 81 98 107 111 120 95 110 81 70 77 70 48 16 36 102 48 36 81 65 72 40 27 334 271 338 73 183 224 186 219 69 351 317 69 352 344 336 338 341
154 140 133 124 116 89 113 114 116 106 101 83 90 71 64 56 40 33 59 68 71 76 69 117 39 107 13 335 309 305 340 22 275 359 47 337 336 58 338 335 331 330 329 329
152 145 138 133 121 101 130 124 126 112 107 98 66 78 62 48 42 36 92 121 105 90 67 66 97 119 49 200 306 318 328 350 338 281 329 340 278 319 324 324 325 325 320 323
155 153 148 146 133 109 115 124 131 136 104 127 131 86 55 47 39 56 111 125 123 82 79 60 80 35 27 358 86 350 22 58 351 265 302 286 287 302 317 322 325 323 326 314
159 158 154 153 153 141 123 110 106 112 121 117 108 120 57 46 64 76 83 84 82 83 93 87 68 67 55 27 33 199 36 339 307 290 296 299 296 302 310 312 321 322 320 311
158 154 145 147 155 169 175 138 143 139 138 127 108 93 67 36 58 63 69 72 80 86 84 50 23 23 22 67 7 339 327 326 322 314 313 313 305 303 314 314 315 315 312 311
154 143 136 121 109 99 102 122 122 122 106 95 95 296 81 22 35 50 40 73 72 47 72 73 77 60 347 240 242 328 327 325 333 323 321 308 312 319 313 318 320 321 318 318
150 141 127 116 119 112 116 102 94 81 84 101 82 115 243 17 31 56 27 65 72 85 155 184 183 172 206 230 314 319 326 327 316 326 336 331 324 319 323 327 330 323 319 313
146 138 116 123 128 128 115 75 64 77 51 61 90 102 347 35 26 48 132 347 118 106 236 196 226 247 253 272 323 335 333 338 340 327 332 336 335 331 331 331 330 325 312 301
149 136 95 127 125 92 66 66 45 3 44 55 102 121 151 95 83 250 242 225 155 113 227 175 234 262 219 304 334 341 343 341 341 333 331 331 332 332 327 326 327 321 314 311
135 123 117 117 95 78 78 2 329 53 190 135 133 142 156 154 221 266 235 242 194 234 146 117 247 234 214 315 326 342 346 341 337 336 331 331 331 333 331 326 322 323 318 306
127 92 97 110 30 53 100 179 309 5 172 158 146 95 128 164 186 259 258 242 234 126 189 222 229 129 7 341 326 328 335 333 329 329 326 326 324 328 327 327 320 314 306 314
111 131 73 103 313 210 170 173 165 130 135 130 120 105 124 117 81 284 246 248 181 252 262 243 256 31 347 334 331 330 330 330 328 328 324 321 319 320 322 318 321 311 296 309
109 127 118 156 129 100 120 118 120 122 135 120 117 103 136 187 158 214 280 233 244 218 238 240 0 338 326 324 328 326 324 324 327 329 325 319 314 311 313 311 311 310 298 280
99 99 101 130 97 110 155 149 140 147 143 123 126 96 60 208 203 215 215 151 229 249 215 345 336 328 327 324 324 320 315 319 327 332 333 327 316 308 304 307 302 295 294 293
105 101 130 126 113 154 158 165 166 162 154 156 124 104 207 130 188 229 208 214 224 246 319 337 327 319 320 322 319 314 311 316 325 329 334 335 334 318 301 296 302 293 279 277
Height
1481 1478 1477 1475 1471 1470 1471 1472 1474 1477 1478 1480 1476 1479 1473 1468 1468 1468 1469 1470 1471 1474 1474 1476 1482 1482 1482 1481 1483 1486 1488 1495 1500 1504 1505 1506 1507 1509 1511 1519 1524 1533 1530 1507
1478 1476 1475 1473 1470 1469 1470 1471 1474 1477 1478 1477 1479 1473 1471 1469 1468 1468 1469 1469 1468 1473 1478 1483 1481 1481 1482 1482 1484 1486 1487 1499 1502 1505 1508 1507 1505 1509 1509 1513 1518 1526 1513 1499
1474 1473 1472 1470 1468 1467 1468 1470 1476 1477 1477 1476 1478 1476 1474 1471 1470 1471 1469 1469 1468 1471 1475 1478 1481 1481 1481 1482 1482 1482 1483 1495 1497 1500 1499 1500 1506 1504 1505 1508 1518 1510 1492 1491
1471 1471 1469 1468 1466 1465 1467 1467 1471 1472 1474 1475 1476 1476 1474 1469 1467 1469 1470 1470 1473 1471 1475 1479 1481 1481 1481 1482 1483 1483 1485 1498 1499 1494 1494 1496 1497 1498 1501 1503 1499 1498 1479 1481
1469 1468 1467 1465 1464 1463 1464 1465 1467 1471 1473 1473 1474 1475 1477 1474 1472 1469 1471 1474 1474 1471 1477 1479 1480 1480 1481 1482 1485 1488 1490 1501 1499 1502 1498 1498 1500 1498 1500 1496 1495 1494 1488 1483
1467 1466 1465 1464 1463 1462 1460 1462 1464 1467 1473 1473 1474 1476 1475 1476 1474 1476 1472 1475 1475 1476 1479 1478 1479 1479 1479 1479 1484 1490 1493 1498 1504 1504 1505 1501 1500 1489 1490 1490 1487 1486 1488 1474
1465 1464 1463 1462 1462 1460 1459 1459 1462 1465 1476 1475 1476 1475 1474 1476 1477 1475 1477 1474 1474 1481 1478 1479 1479 1479 1480 1482 1484 1485 1495 1500 1509 1517 1507 1514 1485 1484 1484 1487 1485 1484 1482 1476
1462 1462 1461 1461 1460 1459 1459 1458 1460 1462 1476 1478 1478 1477 1478 1478 1477 1478 1478 1479 1478 1477 1478 1481 1483 1488 1483 1486 1486 1487 1487 1497 1510 1512 1517 1498 1483 1483 1484 1483 1483 1480 1481 1477
1460 1460 1460 1460 1459 1459 1460 1458 1460 1462 1469 1482 1481 1481 1482 1484 1483 1480 1480 1480 1478 1477 1479 1482 1486 1493 1487 1489 1488 1489 1489 1490 1498 1510 1510 1499 1486 1482 1481 1482 1488 1478 1478 1475
1459 1459 1459 1460 1459 1459 1459 1459 1460 1462 1471 1482 1482 1483 1485 1485 1483 1482 1481 1478 1478 1479 1483 1484 1488 1494 1487 1490 1490 1490 1491 1493 1498 1500 1498 1495 1483 1481 1481 1484 1489 1479 1477 1473
1457 1458 1459 1460 1460 1459 1458 1457 1460 1463 1471 1482 1483 1482 1484 1485 1486 1485 1484 1483 1485 1484 1486 1488 1493 1492 1495 1492 1489 1490 1492 1497 1498 1498 1494 1504 1483 1481 1485 1489 1482 1479 1474 1470
1456 1457 1459 1460 1461 1460 1459 1459 1461 1464 1468 1483 1485 1484 1485 1487 1490 1488 1485 1488 1489 1488 1488 1491 1493 1496 1496 1501 1493 1491 1493 1491 1492 1494 1490 1484 1485 1485 1486 1484 1481 1476 1472 1465
1455 1456 1458 1461 1462 1462 1462 1462 1465 1468 1472 1484 1487 1488 1489 1489 1488 1488 1489 1491 1488 1490 1490 1493 1493 1495 1498 1501 1499 1497 1492 1492 1493 1490 1486 1485 1483 1482 1481 1480 1477 1473 1470 1465
1453 1455 1458 1460 1462 1462 1464 1466 1467 1468 1473 1483 1493 1491 1491 1490 1489 1488 1488 1486 1489 1492 1493 1494 1495 1496 1498 1499 1501 1502 1499 1496 1499 1493 1487 1483 1477 1478 1478 1473 1471 1468 1464 1462
1451 1455 1457 1459 1462 1462 1465 1467 1468 1469 1474 1482 1490 1492 1493 1492 1490 1488 1488 1488 1489 1491 1492 1494 1498 1499 1500 1500 1501 1502 1500 1505 1506 1500 1493 1492 1483 1478 1475 1471 1467 1464 1460 1452
1450 1453 1455 1459 1462 1463 1465 1468 1472 1472 1473 1479 1488 1493 1492 1492 1490 1490 1490 1490 1489 1492 1492 1495 1497 1498 1499 1501 1502 1501 1500 1500 1499 1494 1490 1486 1480 1476 1474 1469 1465 1459 1456 1452
1449 1452 1455 1459 1461 1463 1465 1467 1468 1471 1473 1477 1487 1491 1493 1492 1491 1491 1491 1491 1491 1492 1495 1498 1502 1501 1500 1499 1500 1498 1498 1495 1491 1488 1485 1478 1475 1472 1469 1465 1460 1455 1449 1445
1449 1452 1456 1459 1462 1465 1467 1468 1469 1471 1473 1475 1484 1493 1492 1493 1493 1493 1493 1492 1493 1497 1500 1502 1502 1503 1504 1502 1497 1496 1494 1490 1486 1485 1482 1477 1471 1466 1463 1460 1455 1449 1443 1440
1449 1453 1458 1461 1465 1467 1470 1471 1471 1473 1477 1475 1483 1498 1503 1494 1494 1495 1495 1495 1496 1498 1498 1495 1498 1497 1498 1492 1491 1492 1490 1487 1482 1478 1475 1472 1467 1462 1459 1453 1449 1444 1440 1438
1451 1456 1458 1462 1465 1468 1470 1472 1473 1475 1476 1479 1486 1492 1496 1495 1495 1495 1495 1496 1497 1503 1499 1498 1495 1492 1488 1487 1486 1484 1482 1480 1477 1473 1467 1465 1461 1457 1453 1449 1446 1442 1438 1436
1449 1453 1457 1462 1466 1469 1470 1472 1475 1479 1483 1484 1489 1492 1494 1496 1497 1498 1496 1497 1495 1503 1496 1496 1499 1493 1484 1484 1482 1480 1477 1474 1472 1470 1467 1463 1459 1454 1450 1446 1444 1441 1436 1433
1447 1451 1458 1464 1467 1469 1472 1486 1483 1482 1487 1487 1488 1492 1493 1495 1495 1497 1496 1495 1496 1500 1493 1497 1495 1480 1480 1480 1479 1478 1474 1471 1468 1465 1461 1458 1455 1452 1447 1443 1440 1437 1434 1432
1448 1453 1458 1464 1471 1475 1484 1492 1492 1490 1484 1487 1489 1492 1492 1494 1495 1496 1496 1493 1494 1492 1490 1491 1482 1478 1480 1479 1476 1473 1470 1466 1462 1459 1456 1452 1449 1447 1444 1440 1437 1435 1433 1430
1446 1451 1465 1468 1476 1475 1477 1479 1480 1482 1483 1485 1488 1491 1493 1494 1494 1494 1493 1491 1489 1485 1492 1488 1480 1477 1475 1475 1472 1468 1464 1461 1457 1454 1451 1448 1445 1441 1439 1437 1433 1430 1429 1428
1447 1451 1462 1467 1468 1471 1474 1476 1479 1481 1483 1485 1488 1491 1493 1493 1493 1493 1491 1488 1487 1484 1489 1483 1476 1474 1472 1469 1466 1464 1460 1457 1454 1450 1445 1442 1439 1436 1433 1431 1428 1425 1422 1423
1448 1452 1461 1465 1466 1472 1475 1476 1478 1481 1483 1485 1487 1490 1496 1493 1490 1491 1490 1501 1498 1484 1478 1475 1474 1472 1470 1467 1464 1459 1456 1453 1450 1446 1441 1437 1433 1429 1426 1424 1423 1421 1418 1417
1448 1453 1454 1457 1461 1466 1470 1474 1477 1480 1483 1485 1487 1493 1491 1492 1491 1491 1485 1485 1477 1472 1472 1473 1472 1468 1465 1462 1458 1455 1452 1449 1446 1442 1438 1433 1428 1424 1420 1418 1417 1415 1413 1412